Time,TemperatureF,DewpointF,PressureIn,WindDirection,WindDirectionDegrees,WindSpeedMPH,WindSpeedGustMPH,Humidity,HourlyPrecipIn,Conditions,Clouds,dailyrainin,SoftwareType,DateUTC
2013-02-03 00:02:00,21.0,12.0,30.12,NW,310,21.0,25.0,67,-99.99,,,-99.99,,2013-02-03 06:02:00,
2013-02-03 00:11:00,21.0,12.0,30.12,NW,310,21.0,25.0,67,-99.99,,,-99.99,,2013-02-03 06:11:00,
2013-02-03 00:21:00,21.0,12.0,30.12,NW,310,21.0,25.0,67,-99.99,,,-99.99,,2013-02-03 06:21:00,
2013-02-03 00:32:00,19.0,10.0,30.14,WNW,300,20.0,25.0,67,-99.99,,,-99.99,,2013-02-03 06:32:00,
2013-02-03 00:42:00,19.0,10.0,30.14,WNW,300,20.0,25.0,67,-99.99,,,-99.99,,2013-02-03 06:42:00,
2013-02-03 00:52:00,19.0,10.0,30.14,NW,320,20.0,25.0,67,-99.99,,,-99.99,,2013-02-03 06:52:00,
2013-02-03 01:01:00,19.0,10.0,30.14,NW,320,20.0,25.0,67,-99.99,,,-99.99,,2013-02-03 07:01:00,
2013-02-03 01:11:00,19.0,10.0,30.15,NW,320,20.0,29.0,67,-99.99,,,-99.99,,2013-02-03 07:11:00,
2013-02-03 01:21:00,19.0,10.0,30.15,NW,320,20.0,29.0,67,-99.99,,,-99.99,,2013-02-03 07:21:00,
2013-02-03 01:31:00,18.0,10.0,30.15,NW,310,16.0,21.0,72,-99.99,,,-99.99,,2013-02-03 07:31:00,
2013-02-03 01:42:00,18.0,10.0,30.15,NW,310,16.0,21.0,72,-99.99,,,-99.99,,2013-02-03 07:42:00,
2013-02-03 01:52:00,18.0,9.0,30.16,NW,310,14.0,20.0,67,-99.99,,,-99.99,,2013-02-03 07:52:00,
2013-02-03 02:01:00,18.0,9.0,30.16,NW,310,14.0,20.0,67,-99.99,,,-99.99,,2013-02-03 08:01:00,
2013-02-03 02:11:00,18.0,10.0,30.16,NW,310,15.0,-999.0,72,-99.99,,,-99.99,,2013-02-03 08:11:00,
2013-02-03 02:22:00,18.0,10.0,30.16,NW,310,15.0,-999.0,72,-99.99,,,-99.99,,2013-02-03 08:22:00,
2013-02-03 02:32:00,16.0,9.0,30.16,WNW,300,10.0,-999.0,72,-99.99,,,-99.99,,2013-02-03 08:32:00,
2013-02-03 02:41:00,16.0,9.0,30.16,WNW,300,10.0,-999.0,72,-99.99,,,-99.99,,2013-02-03 08:41:00,
2013-02-03 02:52:00,16.0,9.0,30.15,WNW,300,13.0,-999.0,72,-99.99,,,-99.99,,2013-02-03 08:52:00,
2013-02-03 03:02:00,16.0,9.0,30.15,WNW,300,13.0,-999.0,72,-99.99,,,-99.99,,2013-02-03 09:02:00,
2013-02-03 03:11:00,14.0,7.0,30.16,West,280,12.0,-999.0,72,-99.99,,,-99.99,,2013-02-03 09:11:00,
2013-02-03 03:21:00,14.0,7.0,30.16,West,280,12.0,-999.0,72,-99.99,,,-99.99,,2013-02-03 09:21:00,
2013-02-03 03:31:00,12.0,7.0,30.16,West,280,7.0,-999.0,78,-99.99,,,-99.99,,2013-02-03 09:31:00,
2013-02-03 03:42:00,12.0,7.0,30.16,West,280,7.0,-999.0,78,-99.99,,,-99.99,,2013-02-03 09:42:00,
2013-02-03 03:51:00,12.0,7.0,30.15,West,280,9.0,-999.0,78,-99.99,,,-99.99,,2013-02-03 09:51:00,
2013-02-03 04:01:00,12.0,7.0,30.15,West,280,9.0,-999.0,78,-99.99,,,-99.99,,2013-02-03 10:01:00,
2013-02-03 04:11:00,12.0,7.0,30.15,WNW,290,9.0,-999.0,78,-99.99,,,-99.99,,2013-02-03 10:11:00,
2013-02-03 04:21:00,12.0,7.0,30.15,WNW,290,9.0,-999.0,78,-99.99,,,-99.99,,2013-02-03 10:21:00,
2013-02-03 04:31:00,12.0,7.0,30.15,West,280,6.0,-999.0,78,-99.99,,,-99.99,,2013-02-03 10:31:00,
2013-02-03 04:42:00,12.0,7.0,30.15,West,280,6.0,-999.0,78,-99.99,,,-99.99,,2013-02-03 10:42:00,
2013-02-03 04:52:00,12.0,7.0,30.16,North,0,0.0,-999.0,78,-99.99,,,-99.99,,2013-02-03 10:52:00,
2013-02-03 05:02:00,12.0,7.0,30.16,North,0,0.0,-999.0,78,-99.99,,,-99.99,,2013-02-03 11:02:00,
2013-02-03 05:11:00,12.0,7.0,30.16,North,0,0.0,-999.0,78,-99.99,,,-99.99,,2013-02-03 11:11:00,
2013-02-03 05:22:00,12.0,7.0,30.16,North,0,0.0,-999.0,78,-99.99,,,-99.99,,2013-02-03 11:22:00,
2013-02-03 05:32:00,10.0,5.0,30.16,North,0,0.0,-999.0,78,-99.99,,,-99.99,,2013-02-03 11:32:00,
2013-02-03 05:42:00,10.0,5.0,30.16,North,0,0.0,-999.0,78,-99.99,,,-99.99,,2013-02-03 11:42:00,
2013-02-03 05:52:00,10.0,5.0,30.15,SW,220,6.0,-999.0,78,-99.99,,,-99.99,,2013-02-03 11:52:00,
2013-02-03 06:02:00,10.0,5.0,30.15,SW,220,6.0,-999.0,78,-99.99,,,-99.99,,2013-02-03 12:02:00,
2013-02-03 06:11:00,10.0,5.0,30.14,North,0,0.0,-999.0,78,-99.99,,,-99.99,,2013-02-03 12:11:00,
2013-02-03 06:22:00,10.0,5.0,30.14,North,0,0.0,-999.0,78,-99.99,,,-99.99,,2013-02-03 12:22:00,
2013-02-03 06:32:00,9.0,3.0,30.13,North,0,0.0,-999.0,78,-99.99,,,-99.99,,2013-02-03 12:32:00,
2013-02-03 06:42:00,9.0,3.0,30.13,North,0,0.0,-999.0,78,-99.99,,,-99.99,,2013-02-03 12:42:00,
2013-02-03 06:53:00,9.0,3.0,30.12,North,0,0.0,-999.0,78,-99.99,,,-99.99,,2013-02-03 12:53:00,
2013-02-03 07:03:00,9.0,3.0,30.12,North,0,0.0,-999.0,78,-99.99,,,-99.99,,2013-02-03 13:03:00,
2013-02-03 07:11:00,9.0,3.0,30.12,North,0,0.0,-999.0,78,-99.99,,,-99.99,,2013-02-03 13:11:00,
2013-02-03 07:21:00,9.0,3.0,30.12,North,0,0.0,-999.0,78,-99.99,,,-99.99,,2013-02-03 13:21:00,
2013-02-03 07:32:00,10.0,5.0,30.11,North,0,0.0,-999.0,78,-99.99,,,-99.99,,2013-02-03 13:32:00,
2013-02-03 07:42:00,10.0,5.0,30.11,North,0,0.0,-999.0,78,-99.99,,,-99.99,,2013-02-03 13:42:00,
2013-02-03 07:52:00,12.0,7.0,30.11,North,0,0.0,-999.0,78,-99.99,,,-99.99,,2013-02-03 13:52:00,
2013-02-03 08:02:00,12.0,7.0,30.11,North,0,0.0,-999.0,78,-99.99,,,-99.99,,2013-02-03 14:02:00,
2013-02-03 08:11:00,12.0,7.0,30.11,North,0,0.0,-999.0,78,-99.99,,,-99.99,,2013-02-03 14:11:00,
2013-02-03 08:21:00,12.0,7.0,30.11,North,0,0.0,-999.0,78,-99.99,,,-99.99,,2013-02-03 14:21:00,
2013-02-03 08:32:00,12.0,9.0,30.10,North,0,0.0,-999.0,85,-99.99,,,-99.99,,2013-02-03 14:32:00,
2013-02-03 08:42:00,12.0,9.0,30.10,North,0,0.0,-999.0,85,-99.99,,,-99.99,,2013-02-03 14:42:00,
2013-02-03 08:52:00,14.0,9.0,30.09,North,0,0.0,-999.0,78,-99.99,,,-99.99,,2013-02-03 14:52:00,
2013-02-03 09:03:00,14.0,9.0,30.09,North,0,0.0,-999.0,78,-99.99,,,-99.99,,2013-02-03 15:03:00,
2013-02-03 09:11:00,16.0,10.0,30.09,North,0,0.0,-999.0,78,-99.99,,,-99.99,,2013-02-03 15:11:00,
2013-02-03 09:22:00,16.0,10.0,30.09,North,0,0.0,-999.0,78,-99.99,,,-99.99,,2013-02-03 15:22:00,
2013-02-03 09:32:00,18.0,10.0,30.07,North,0,0.0,-999.0,72,-99.99,,,-99.99,,2013-02-03 15:32:00,
2013-02-03 09:42:00,18.0,10.0,30.07,North,0,0.0,-999.0,72,-99.99,,,-99.99,,2013-02-03 15:42:00,
2013-02-03 09:51:00,19.0,14.0,30.08,North,0,0.0,-999.0,79,-99.99,,,-99.99,,2013-02-03 15:51:00,
2013-02-03 10:02:00,19.0,14.0,30.08,North,0,0.0,-999.0,79,-99.99,,,-99.99,,2013-02-03 16:02:00,
2013-02-03 10:11:00,21.0,14.0,30.09,SSW,210,6.0,-999.0,73,-99.99,,,-99.99,,2013-02-03 16:11:00,
2013-02-03 10:22:00,21.0,14.0,30.09,SSW,210,6.0,-999.0,73,-99.99,,,-99.99,,2013-02-03 16:22:00,
2013-02-03 10:32:00,23.0,14.0,30.09,North,0,0.0,-999.0,67,-99.99,,,-99.99,,2013-02-03 16:32:00,
2013-02-03 10:42:00,23.0,14.0,30.09,North,0,0.0,-999.0,67,-99.99,,,-99.99,,2013-02-03 16:42:00,
2013-02-03 10:52:00,25.0,14.0,30.07,SE,140,5.0,-999.0,63,-99.99,,,-99.99,,2013-02-03 16:52:00,
2013-02-03 11:02:00,25.0,14.0,30.07,SE,140,5.0,-999.0,63,-99.99,,,-99.99,,2013-02-03 17:02:00,
2013-02-03 11:11:00,25.0,16.0,30.06,SE,130,5.0,-999.0,68,-99.99,,,-99.99,,2013-02-03 17:11:00,
2013-02-03 11:22:00,25.0,16.0,30.06,SE,130,5.0,-999.0,68,-99.99,,,-99.99,,2013-02-03 17:22:00,
2013-02-03 11:32:00,27.0,18.0,30.04,North,0,0.0,-999.0,68,-99.99,,,-99.99,,2013-02-03 17:32:00,
2013-02-03 11:42:00,27.0,18.0,30.04,North,0,0.0,-999.0,68,-99.99,,,-99.99,,2013-02-03 17:42:00,
2013-02-03 11:52:00,27.0,16.0,30.02,South,170,7.0,-999.0,63,-99.99,,,-99.99,,2013-02-03 17:52:00,
2013-02-03 12:03:00,27.0,16.0,30.02,South,170,7.0,-999.0,63,-99.99,,,-99.99,,2013-02-03 18:03:00,
2013-02-03 12:12:00,27.0,16.0,30.02,South,170,7.0,-999.0,63,-99.99,,,-99.99,,2013-02-03 18:12:00,
2013-02-03 12:23:00,28.0,19.0,30.00,SSE,160,8.0,-999.0,68,-99.99,,,-99.99,,2013-02-03 18:23:00,
2013-02-03 12:32:00,28.0,18.0,29.98,SSE,150,10.0,15.0,63,-99.99,,,-99.99,,2013-02-03 18:32:00,
2013-02-03 12:42:00,28.0,18.0,29.98,SSE,150,10.0,15.0,63,-99.99,,,-99.99,,2013-02-03 18:42:00,
2013-02-03 12:51:00,28.0,19.0,29.97,SSE,150,8.0,-999.0,68,-99.99,,,-99.99,,2013-02-03 18:51:00,
2013-02-03 13:02:00,28.0,19.0,29.97,SSE,150,8.0,-999.0,68,-99.99,,,-99.99,,2013-02-03 19:02:00,
2013-02-03 13:11:00,28.0,19.0,29.96,SE,140,9.0,-999.0,68,-99.99,,,-99.99,,2013-02-03 19:11:00,
2013-02-03 13:22:00,28.0,19.0,29.96,SE,140,9.0,-999.0,68,-99.99,,,-99.99,,2013-02-03 19:22:00,
2013-02-03 13:32:00,30.0,21.0,29.95,SE,140,8.0,-999.0,68,-99.99,,,-99.99,,2013-02-03 19:32:00,
2013-02-03 13:42:00,30.0,21.0,29.95,SE,140,8.0,-999.0,68,-99.99,,,-99.99,,2013-02-03 19:42:00,
2013-02-03 13:51:00,34.0,25.0,29.93,SSE,160,7.0,-999.0,69,-99.99,,,-99.99,,2013-02-03 19:51:00,
2013-02-03 14:01:00,34.0,25.0,29.93,SSE,160,7.0,-999.0,69,-99.99,,,-99.99,,2013-02-03 20:01:00,
2013-02-03 14:12:00,34.0,25.0,29.92,SE,140,8.0,-999.0,69,-99.99,,,-99.99,,2013-02-03 20:12:00,
2013-02-03 14:21:00,34.0,25.0,29.92,SE,140,8.0,-999.0,69,-99.99,,,-99.99,,2013-02-03 20:21:00,
2013-02-03 14:32:00,36.0,27.0,29.90,ESE,120,5.0,-999.0,69,-99.99,,,-99.99,,2013-02-03 20:32:00,
2013-02-03 14:42:00,36.0,27.0,29.90,ESE,120,5.0,-999.0,69,-99.99,,,-99.99,,2013-02-03 20:42:00,
2013-02-03 14:52:00,37.0,28.0,29.89,SE,130,7.0,-999.0,69,-99.99,,,-99.99,,2013-02-03 20:52:00,
2013-02-03 15:03:00,37.0,28.0,29.89,SE,130,7.0,-999.0,69,-99.99,,,-99.99,,2013-02-03 21:03:00,
2013-02-03 15:11:00,39.0,30.0,29.87,SSE,160,8.0,-999.0,69,-99.99,,,-99.99,,2013-02-03 21:11:00,
2013-02-03 15:21:00,39.0,30.0,29.87,SSE,160,8.0,-999.0,69,-99.99,,,-99.99,,2013-02-03 21:21:00,
2013-02-03 15:32:00,41.0,30.0,29.86,SE,140,9.0,-999.0,65,-99.99,,,-99.99,,2013-02-03 21:32:00,
2013-02-03 15:42:00,41.0,30.0,29.86,SE,140,9.0,-999.0,65,-99.99,,,-99.99,,2013-02-03 21:42:00,
2013-02-03 15:51:00,43.0,32.0,29.85,SSE,150,8.0,-999.0,65,-99.99,,,-99.99,,2013-02-03 21:51:00,
2013-02-03 16:01:00,43.0,32.0,29.85,SSE,150,8.0,-999.0,65,-99.99,,,-99.99,,2013-02-03 22:01:00,
2013-02-03 16:11:00,43.0,32.0,29.84,SSE,150,7.0,-999.0,65,-99.99,,,-99.99,,2013-02-03 22:11:00,
2013-02-03 16:21:00,43.0,32.0,29.84,SSE,150,7.0,-999.0,65,-99.99,,,-99.99,,2013-02-03 22:21:00,
2013-02-03 16:32:00,43.0,34.0,29.83,North,0,0.0,-999.0,70,-99.99,,,-99.99,,2013-02-03 22:32:00,
2013-02-03 16:41:00,43.0,34.0,29.83,North,0,0.0,-999.0,70,-99.99,,,-99.99,,2013-02-03 22:41:00,
2013-02-03 16:51:00,41.0,34.0,29.83,ENE,70,5.0,-999.0,75,-99.99,,,-99.99,,2013-02-03 22:51:00,
2013-02-03 17:01:00,41.0,34.0,29.83,ENE,70,5.0,-999.0,75,-99.99,,,-99.99,,2013-02-03 23:01:00,
2013-02-03 17:12:00,39.0,34.0,29.82,North,0,0.0,-999.0,80,-99.99,,,-99.99,,2013-02-03 23:12:00,
2013-02-03 17:22:00,39.0,34.0,29.82,North,0,0.0,-999.0,80,-99.99,,,-99.99,,2013-02-03 23:22:00,
2013-02-03 17:32:00,37.0,32.0,29.81,North,0,0.0,-999.0,80,-99.99,,,-99.99,,2013-02-03 23:32:00,
2013-02-03 17:42:00,37.0,32.0,29.81,North,0,0.0,-999.0,80,-99.99,,,-99.99,,2013-02-03 23:42:00,
2013-02-03 17:52:00,36.0,30.0,29.80,NNE,20,8.0,-999.0,80,-99.99,,,-99.99,,2013-02-03 23:52:00,
2013-02-03 18:01:00,36.0,30.0,29.80,NNE,20,8.0,-999.0,80,-99.99,,,-99.99,,2013-02-04 00:01:00,
2013-02-03 18:11:00,34.0,30.0,29.81,North,10,12.0,16.0,86,-99.99,,,-99.99,,2013-02-04 00:11:00,
2013-02-03 18:22:00,34.0,30.0,29.81,North,10,12.0,16.0,86,-99.99,,,-99.99,,2013-02-04 00:22:00,
2013-02-03 18:32:00,34.0,30.0,29.81,NE,40,6.0,-999.0,86,-99.99,,,-99.99,,2013-02-04 00:32:00,
2013-02-03 18:41:00,34.0,30.0,29.81,NE,40,6.0,-999.0,86,-99.99,,,-99.99,,2013-02-04 00:41:00,
2013-02-03 18:51:00,34.0,30.0,29.81,ENE,60,5.0,-999.0,86,-99.99,,,-99.99,,2013-02-04 00:51:00,
2013-02-03 19:01:00,34.0,30.0,29.81,ENE,60,5.0,-999.0,86,-99.99,,,-99.99,,2013-02-04 01:01:00,
2013-02-03 19:11:00,34.0,30.0,29.81,NE,40,7.0,-999.0,86,-99.99,,,-99.99,,2013-02-04 01:11:00,
2013-02-03 19:21:00,34.0,30.0,29.81,NE,40,7.0,-999.0,86,-99.99,,,-99.99,,2013-02-04 01:21:00,
2013-02-03 19:31:00,32.0,28.0,29.81,NE,50,9.0,-999.0,86,-99.99,,,-99.99,,2013-02-04 01:31:00,
2013-02-03 19:41:00,32.0,28.0,29.81,NE,50,9.0,-999.0,86,-99.99,,,-99.99,,2013-02-04 01:41:00,
2013-02-03 19:52:00,32.0,28.0,29.81,North,10,6.0,-999.0,86,-99.99,,,-99.99,,2013-02-04 01:52:00,
2013-02-03 20:02:00,32.0,28.0,29.81,North,10,6.0,-999.0,86,-99.99,,,-99.99,,2013-02-04 02:02:00,
2013-02-03 20:11:00,30.0,27.0,29.81,NE,40,7.0,-999.0,86,-99.99,,,-99.99,,2013-02-04 02:11:00,
2013-02-03 20:21:00,30.0,27.0,29.81,NE,40,7.0,-999.0,86,-99.99,,,-99.99,,2013-02-04 02:21:00,
2013-02-03 20:31:00,28.0,25.0,29.81,NE,50,8.0,-999.0,86,-99.99,,,-99.99,,2013-02-04 02:31:00,
2013-02-03 20:41:00,28.0,25.0,29.81,NE,50,8.0,-999.0,86,-99.99,,,-99.99,,2013-02-04 02:41:00,
2013-02-03 20:52:00,28.0,25.0,29.80,NE,40,8.0,-999.0,86,-99.99,,,-99.99,,2013-02-04 02:52:00,
2013-02-03 21:02:00,28.0,25.0,29.80,NE,40,8.0,-999.0,86,-99.99,,,-99.99,,2013-02-04 03:02:00,
2013-02-03 21:11:00,28.0,25.0,29.80,NNE,30,7.0,-999.0,86,-99.99,,,-99.99,,2013-02-04 03:11:00,
2013-02-03 21:21:00,28.0,25.0,29.80,NNE,30,7.0,-999.0,86,-99.99,,,-99.99,,2013-02-04 03:21:00,
2013-02-03 21:32:00,28.0,25.0,29.80,NE,40,8.0,-999.0,86,-99.99,,,-99.99,,2013-02-04 03:32:00,
2013-02-03 21:42:00,28.0,25.0,29.80,NE,40,8.0,-999.0,86,-99.99,,,-99.99,,2013-02-04 03:42:00,
2013-02-03 21:51:00,27.0,23.0,29.81,NE,50,8.0,-999.0,86,-99.99,,,-99.99,,2013-02-04 03:51:00,
2013-02-03 22:01:00,27.0,23.0,29.81,NE,50,8.0,-999.0,86,-99.99,,,-99.99,,2013-02-04 04:01:00,
2013-02-03 22:11:00,27.0,21.0,29.82,North,10,9.0,-999.0,79,-99.99,,,-99.99,,2013-02-04 04:11:00,
2013-02-03 22:21:00,27.0,21.0,29.82,North,10,9.0,-999.0,79,-99.99,,,-99.99,,2013-02-04 04:21:00,
2013-02-03 22:32:00,27.0,23.0,29.82,North,10,12.0,-999.0,86,-99.99,,,-99.99,,2013-02-04 04:32:00,
2013-02-03 22:41:00,27.0,23.0,29.82,North,10,12.0,-999.0,86,-99.99,,,-99.99,,2013-02-04 04:41:00,
2013-02-03 22:52:00,25.0,21.0,29.83,NNE,20,13.0,17.0,85,-99.99,,,-99.99,,2013-02-04 04:52:00,
2013-02-03 23:03:00,25.0,21.0,29.83,NNE,20,13.0,17.0,85,-99.99,,,-99.99,,2013-02-04 05:03:00,
2013-02-03 23:11:00,25.0,19.0,29.83,NNE,20,14.0,20.0,79,-99.99,,,-99.99,,2013-02-04 05:11:00,
2013-02-03 23:22:00,25.0,19.0,29.83,NNE,20,14.0,20.0,79,-99.99,,,-99.99,,2013-02-04 05:22:00,
2013-02-03 23:33:00,21.0,18.0,29.84,NNE,30,14.0,18.0,85,-99.99,,,-99.99,,2013-02-04 05:33:00,
2013-02-03 23:42:00,21.0,18.0,29.84,NNE,30,14.0,18.0,85,-99.99,,,-99.99,,2013-02-04 05:42:00,
2013-02-03 23:52:00,21.0,18.0,29.84,NNE,30,14.0,-999.0,85,-99.99,,,-99.99,,2013-02-04 05:52:00,